NPV1459 KASE-KDFW

Flight info

Callsign NPV1459
Flight time 1h 29m
Altitude 39000
Route LINDZ1 LINDZ KEEPP CLIMN MROON HBU ALS PNH MDANO VKTRY2
Aircraft A319/M-SDE3FGHIRWY/LB1

Departure

Time 2026-05-04 13:06
Airport Aspen-Pitkin County Airport (Sardy Field) (KASE)

Arrival

Time 2026-05-04 14:35
Airport Dallas Fort Worth International Airport (KDFW)
Time Latitude Longitude Altitude Speed Heading
2026-05-04 12:34 39.21905 -106.86451 7821 ft 0 kts 73°
2026-05-04 12:59 39.21900 -106.86476 7817 ft 4 kts 76°
2026-05-04 13:00 39.21895 -106.86510 7821 ft 4 kts 85°
2026-05-04 13:00 39.21895 -106.86544 7820 ft 4 kts 105°
2026-05-04 13:00 39.21906 -106.86569 7819 ft 2 kts 158°
2026-05-04 13:00 39.21908 -106.86570 7819 ft 0 kts 160°
2026-05-04 13:03 39.21907 -106.86569 7819 ft 1 kts 160°
2026-05-04 13:03 39.21876 -106.86555 7830 ft 9 kts 160°
2026-05-04 13:03 39.21787 -106.86512 7821 ft 18 kts 159°
2026-05-04 13:03 39.21644 -106.86443 7821 ft 26 kts 159°
2026-05-04 13:04 39.21455 -106.86354 7819 ft 32 kts 160°
2026-05-04 13:04 39.21253 -106.86261 7821 ft 20 kts 160°
2026-05-04 13:04 39.21172 -106.86292 7820 ft 12 kts 239°
2026-05-04 13:04 39.21206 -106.86358 7821 ft 9 kts 339°
2026-05-04 13:05 39.21274 -106.86390 7822 ft 16 kts 340°
2026-05-04 13:05 39.21532 -106.86512 7824 ft 74 kts 339°
2026-05-04 13:05 39.22223 -106.86845 7819 ft 136 kts 340°
2026-05-04 13:05 39.23279 -106.87328 7925 ft 176 kts 342°
2026-05-04 13:06 39.24423 -106.87834 8586 ft 173 kts 345°
2026-05-04 13:06 39.25555 -106.88356 9161 ft 176 kts 322°
2026-05-04 13:06 39.26227 -106.89612 9538 ft 173 kts 284°
2026-05-04 13:06 39.26415 -106.91119 10022 ft 167 kts 277°
2026-05-04 13:07 39.26635 -106.92586 10505 ft 165 kts 279°
2026-05-04 13:07 39.26879 -106.94066 10816 ft 178 kts 279°
2026-05-04 13:07 39.27136 -106.95708 11024 ft 196 kts 279°
2026-05-04 13:07 39.27421 -106.97506 11287 ft 214 kts 279°
2026-05-04 13:08 39.27847 -106.99456 11411 ft 242 kts 296°
2026-05-04 13:08 39.28941 -107.01254 11694 ft 267 kts 309°
2026-05-04 13:08 39.30239 -107.03112 12066 ft 289 kts 310°
2026-05-04 13:08 39.31625 -107.05108 12459 ft 307 kts 311°
2026-05-04 13:09 39.33086 -107.07224 12876 ft 325 kts 311°
2026-05-04 13:09 39.34608 -107.09445 13261 ft 341 kts 311°
2026-05-04 13:09 39.36127 -107.11844 13938 ft 346 kts 302°
2026-05-04 13:09 39.37068 -107.14701 14624 ft 349 kts 283°
2026-05-04 13:10 39.37227 -107.17820 15327 ft 349 kts 263°
2026-05-04 13:10 39.36547 -107.20831 15987 ft 352 kts 242°
2026-05-04 13:10 39.35060 -107.23313 16731 ft 352 kts 222°
2026-05-04 13:10 39.32979 -107.25054 17157 ft 363 kts 202°
2026-05-04 13:11 39.30508 -107.25668 17847 ft 366 kts 180°
2026-05-04 13:11 39.28012 -107.25038 18471 ft 370 kts 159°
2026-05-04 13:11 39.25826 -107.23261 19101 ft 375 kts 140°
2026-05-04 13:11 39.23892 -107.20990 19710 ft 376 kts 140°
2026-05-04 13:12 39.21889 -107.18821 20350 ft 376 kts 142°
2026-05-04 13:12 39.19759 -107.16840 20836 ft 379 kts 154°
2026-05-04 13:12 39.17292 -107.15667 21315 ft 380 kts 170°
2026-05-04 13:12 39.14701 -107.15166 21741 ft 384 kts 177°
2026-05-04 13:13 39.12024 -107.14928 22302 ft 387 kts 179°
2026-05-04 13:13 39.09325 -107.14739 22868 ft 391 kts 179°
2026-05-04 13:13 39.06597 -107.14487 23418 ft 395 kts 178°
2026-05-04 13:13 39.03850 -107.14137 23856 ft 399 kts 176°
2026-05-04 13:14 39.01079 -107.13700 24321 ft 403 kts 176°
2026-05-04 13:14 38.98294 -107.13208 24742 ft 406 kts 176°
2026-05-04 13:14 38.95485 -107.12688 25136 ft 410 kts 177°
2026-05-04 13:14 38.92643 -107.12163 25571 ft 414 kts 178°
2026-05-04 13:15 38.89782 -107.11643 25964 ft 417 kts 178°
2026-05-04 13:15 38.86900 -107.11131 26334 ft 420 kts 179°
2026-05-04 13:15 38.83996 -107.10626 26753 ft 423 kts 179°
2026-05-04 13:15 38.81070 -107.10125 27126 ft 425 kts 180°
2026-05-04 13:16 38.78121 -107.09623 27504 ft 428 kts 180°
2026-05-04 13:16 38.75157 -107.09118 27882 ft 431 kts 181°
2026-05-04 13:16 38.72176 -107.08608 28281 ft 433 kts 181°
2026-05-04 13:16 38.69185 -107.08097 28647 ft 436 kts 181°
2026-05-04 13:17 38.66208 -107.07585 29118 ft 438 kts 181°
2026-05-04 13:17 38.63178 -107.07062 29510 ft 441 kts 181°
2026-05-04 13:17 38.60124 -107.06536 29934 ft 444 kts 182°
2026-05-04 13:17 38.57055 -107.06008 30283 ft 446 kts 182°
2026-05-04 13:18 38.53968 -107.05479 30535 ft 449 kts 182°
2026-05-04 13:18 38.50869 -107.04949 30839 ft 450 kts 182°
2026-05-04 13:18 38.47758 -107.04102 31145 ft 465 kts 172°
2026-05-04 13:18 38.44714 -107.02521 31406 ft 482 kts 161°
2026-05-04 13:19 38.41855 -107.00166 31680 ft 498 kts 149°
2026-05-04 13:19 38.39226 -106.97243 32006 ft 503 kts 146°
2026-05-04 13:19 38.36611 -106.94269 32379 ft 503 kts 146°
2026-05-04 13:19 38.34000 -106.91300 32656 ft 504 kts 147°
2026-05-04 13:20 38.31372 -106.88322 32978 ft 505 kts 147°
2026-05-04 13:20 38.28740 -106.85351 33252 ft 506 kts 147°
2026-05-04 13:20 38.26101 -106.82384 33594 ft 507 kts 148°
2026-05-04 13:20 38.23451 -106.79415 33913 ft 508 kts 148°
2026-05-04 13:21 38.20828 -106.76482 34228 ft 509 kts 148°
2026-05-04 13:21 38.18137 -106.73467 34542 ft 509 kts 148°
2026-05-04 13:21 38.15517 -106.70527 34833 ft 509 kts 148°
2026-05-04 13:21 38.12854 -106.67537 35101 ft 510 kts 148°
2026-05-04 13:22 38.10189 -106.64548 35392 ft 511 kts 149°
2026-05-04 13:22 38.07522 -106.61562 35665 ft 511 kts 149°
2026-05-04 13:22 38.04853 -106.58582 35944 ft 511 kts 149°
2026-05-04 13:22 38.02186 -106.55612 36219 ft 511 kts 149°
2026-05-04 13:23 37.99511 -106.52638 36497 ft 511 kts 149°
2026-05-04 13:23 37.96840 -106.49667 36820 ft 511 kts 149°
2026-05-04 13:23 37.94165 -106.46690 37066 ft 512 kts 150°
2026-05-04 13:23 37.91480 -106.43707 37289 ft 514 kts 150°
2026-05-04 13:24 37.88804 -106.40736 37538 ft 515 kts 150°
2026-05-04 13:24 37.86108 -106.37747 37803 ft 516 kts 150°
2026-05-04 13:24 37.83439 -106.34790 38109 ft 516 kts 150°
2026-05-04 13:25 37.78026 -106.28803 38624 ft 517 kts 151°
2026-05-04 13:25 37.75317 -106.25810 38796 ft 517 kts 151°
2026-05-04 13:25 37.72611 -106.22823 38970 ft 517 kts 151°
2026-05-04 13:25 37.69897 -106.19830 39089 ft 517 kts 151°
2026-05-04 13:26 37.64467 -106.13859 39075 ft 517 kts 151°
2026-05-04 13:26 37.59044 -106.07900 39020 ft 517 kts 151°
2026-05-04 13:27 37.53609 -106.01944 38928 ft 518 kts 151°
2026-05-04 13:27 37.48140 -105.95971 38909 ft 521 kts 151°
2026-05-04 13:28 37.45395 -105.92981 39129 ft 521 kts 151°
2026-05-04 13:28 37.42647 -105.89989 39134 ft 522 kts 151°
2026-05-04 13:28 37.37202 -105.84017 39136 ft 526 kts 147°
2026-05-04 13:29 37.34654 -105.80554 39130 ft 540 kts 137°
2026-05-04 13:29 37.32531 -105.76674 39103 ft 550 kts 128°
2026-05-04 13:29 37.28569 -105.68445 39045 ft 551 kts 128°
2026-05-04 13:30 37.24590 -105.60217 38912 ft 551 kts 128°
2026-05-04 13:30 37.20595 -105.52017 38918 ft 551 kts 128°
2026-05-04 13:31 37.16593 -105.43819 38889 ft 551 kts 128°
2026-05-04 13:31 37.12583 -105.35613 38873 ft 552 kts 128°
2026-05-04 13:32 37.08552 -105.27409 38858 ft 553 kts 128°
2026-05-04 13:32 37.04527 -105.19219 38886 ft 550 kts 128°
2026-05-04 13:33 37.00525 -105.11080 38882 ft 548 kts 128°
2026-05-04 13:33 36.96526 -105.02965 38832 ft 547 kts 128°
2026-05-04 13:34 36.92510 -104.94885 38840 ft 547 kts 128°
2026-05-04 13:34 36.88489 -104.86774 38838 ft 550 kts 129°
2026-05-04 13:35 36.82457 -104.74635 38915 ft 551 kts 129°
2026-05-04 13:36 36.78387 -104.66506 38972 ft 550 kts 128°
2026-05-04 13:36 36.75009 -104.59755 39042 ft 552 kts 128°
2026-05-04 13:37 36.70938 -104.51638 39040 ft 551 kts 128°
2026-05-04 13:37 36.66875 -104.43528 39044 ft 551 kts 128°
2026-05-04 13:38 36.62803 -104.35439 38984 ft 551 kts 129°
2026-05-04 13:38 36.58746 -104.27424 38902 ft 550 kts 128°
2026-05-04 13:39 36.54674 -104.19369 38839 ft 551 kts 128°
2026-05-04 13:39 36.50577 -104.11304 38812 ft 552 kts 128°
2026-05-04 13:40 36.46470 -104.03244 38802 ft 552 kts 128°
2026-05-04 13:40 36.42358 -103.95170 38801 ft 553 kts 128°
2026-05-04 13:41 36.38240 -103.87104 38776 ft 553 kts 128°
2026-05-04 13:41 36.34112 -103.79046 38799 ft 554 kts 128°
2026-05-04 13:42 36.27898 -103.66950 38791 ft 555 kts 128°
2026-05-04 13:42 36.23738 -103.58874 38784 ft 556 kts 128°
2026-05-04 13:43 36.19571 -103.50800 38765 ft 556 kts 128°
2026-05-04 13:43 36.15393 -103.42745 38782 ft 556 kts 128°
2026-05-04 13:44 36.11202 -103.34689 38774 ft 557 kts 127°
2026-05-04 13:44 36.07011 -103.26620 38777 ft 558 kts 128°
2026-05-04 13:45 36.02806 -103.18553 38773 ft 558 kts 128°
2026-05-04 13:45 35.98624 -103.10545 38759 ft 558 kts 127°
2026-05-04 13:46 35.94407 -103.02503 38753 ft 559 kts 127°
2026-05-04 13:46 35.90176 -102.94450 38769 ft 559 kts 127°
2026-05-04 13:47 35.85952 -102.86394 38792 ft 559 kts 127°
2026-05-04 13:47 35.81714 -102.78361 38761 ft 559 kts 127°
2026-05-04 13:48 35.77465 -102.70340 38759 ft 558 kts 127°
2026-05-04 13:48 35.73224 -102.62338 38770 ft 557 kts 127°
2026-05-04 13:49 35.68985 -102.54355 38779 ft 557 kts 127°
2026-05-04 13:49 35.64737 -102.46383 38777 ft 557 kts 127°
2026-05-04 13:50 35.60486 -102.38424 38759 ft 556 kts 127°
2026-05-04 13:50 35.56237 -102.30486 38766 ft 555 kts 127°
2026-05-04 13:51 35.51987 -102.22566 38773 ft 555 kts 127°
2026-05-04 13:51 35.47744 -102.14669 38770 ft 554 kts 127°
2026-05-04 13:52 35.41377 -102.02827 38810 ft 554 kts 127°
2026-05-04 13:53 35.37145 -101.95011 38843 ft 554 kts 127°
2026-05-04 13:53 35.32857 -101.87095 38879 ft 554 kts 127°
2026-05-04 13:54 35.26461 -101.75304 38924 ft 554 kts 127°
2026-05-04 13:55 35.20680 -101.63105 38935 ft 557 kts 118°
2026-05-04 13:55 35.15420 -101.50424 38765 ft 557 kts 118°
2026-05-04 13:56 35.11907 -101.41992 38772 ft 557 kts 118°
2026-05-04 13:57 35.06607 -101.29351 38805 ft 557 kts 119°
2026-05-04 13:58 34.99530 -101.12509 38783 ft 558 kts 119°
2026-05-04 13:58 34.94202 -100.99894 38777 ft 557 kts 118°
2026-05-04 13:59 34.90645 -100.91500 38781 ft 557 kts 118°
2026-05-04 14:00 34.85308 -100.78932 38787 ft 557 kts 118°
2026-05-04 14:00 34.79959 -100.66392 38794 ft 556 kts 119°
2026-05-04 14:01 34.76392 -100.58047 38781 ft 556 kts 118°
2026-05-04 14:02 34.71019 -100.45534 38804 ft 556 kts 118°
2026-05-04 14:02 34.67438 -100.37201 38810 ft 556 kts 118°
2026-05-04 14:03 34.63853 -100.28875 38811 ft 557 kts 119°
2026-05-04 14:03 34.60249 -100.20554 38817 ft 557 kts 119°
2026-05-04 14:04 34.54829 -100.08087 38788 ft 557 kts 118°
2026-05-04 14:04 34.51212 -99.99768 38811 ft 557 kts 118°
2026-05-04 14:05 34.45777 -99.87306 38814 ft 557 kts 118°
2026-05-04 14:06 34.42134 -99.79006 38830 ft 558 kts 118°
2026-05-04 14:06 34.38494 -99.70698 38817 ft 558 kts 118°
2026-05-04 14:07 34.34881 -99.62450 38794 ft 558 kts 118°
2026-05-04 14:07 34.31185 -99.54123 37581 ft 571 kts 120°
2026-05-04 14:07 34.29234 -99.49945 37048 ft 567 kts 121°
2026-05-04 14:08 34.27256 -99.45822 36418 ft 566 kts 122°
2026-05-04 14:08 34.25266 -99.41736 35954 ft 561 kts 122°
2026-05-04 14:08 34.23285 -99.37679 35442 ft 558 kts 122°
2026-05-04 14:08 34.21326 -99.33640 34929 ft 556 kts 122°
2026-05-04 14:09 34.17465 -99.25585 33893 ft 552 kts 122°
2026-05-04 14:09 34.15581 -99.21627 33343 ft 549 kts 122°
2026-05-04 14:10 34.11802 -99.13702 32329 ft 539 kts 122°
2026-05-04 14:10 34.09936 -99.09806 31812 ft 535 kts 122°
2026-05-04 14:10 34.08080 -99.05936 31324 ft 531 kts 122°
2026-05-04 14:10 34.06235 -99.02101 30824 ft 526 kts 122°
2026-05-04 14:11 34.04408 -98.98313 30420 ft 519 kts 122°
2026-05-04 14:11 34.00817 -98.90883 29532 ft 507 kts 122°
2026-05-04 14:11 33.99062 -98.87242 29000 ft 501 kts 122°
2026-05-04 14:12 33.97314 -98.83627 28546 ft 495 kts 122°
2026-05-04 14:12 33.95590 -98.80074 28082 ft 489 kts 122°
2026-05-04 14:12 33.92197 -98.73089 27248 ft 477 kts 122°
2026-05-04 14:13 33.90529 -98.69661 26820 ft 472 kts 122°
2026-05-04 14:13 33.88877 -98.66265 26393 ft 468 kts 122°
2026-05-04 14:13 33.87235 -98.62907 25959 ft 464 kts 122°
2026-05-04 14:13 33.85597 -98.59575 25506 ft 462 kts 122°
2026-05-04 14:14 33.83956 -98.56258 25039 ft 459 kts 122°
2026-05-04 14:14 33.80705 -98.49670 24074 ft 456 kts 122°
2026-05-04 14:14 33.79101 -98.46390 23588 ft 455 kts 122°
2026-05-04 14:15 33.75921 -98.39849 22501 ft 450 kts 122°
2026-05-04 14:15 33.72788 -98.33421 21571 ft 443 kts 122°
2026-05-04 14:16 33.69685 -98.27084 20633 ft 436 kts 122°
2026-05-04 14:16 33.68147 -98.23959 20174 ft 432 kts 122°
2026-05-04 14:17 33.65130 -98.17837 19280 ft 425 kts 122°
2026-05-04 14:17 33.63625 -98.14790 18832 ft 422 kts 122°
2026-05-04 14:17 33.60718 -98.08903 18558 ft 397 kts 122°
2026-05-04 14:18 33.59329 -98.06096 18410 ft 386 kts 122°
2026-05-04 14:18 33.56612 -98.00635 17749 ft 378 kts 123°
2026-05-04 14:19 33.53924 -97.95272 16969 ft 373 kts 123°
2026-05-04 14:19 33.52591 -97.92609 16575 ft 372 kts 122°
2026-05-04 14:19 33.51265 -97.89958 16207 ft 370 kts 122°
2026-05-04 14:19 33.50393 -97.88210 15977 ft 368 kts 122°
2026-05-04 14:20 33.49085 -97.85587 15625 ft 366 kts 122°
2026-05-04 14:20 33.47784 -97.82969 15278 ft 364 kts 122°
2026-05-04 14:20 33.46497 -97.80380 14852 ft 360 kts 122°
2026-05-04 14:21 33.43545 -97.74452 13529 ft 354 kts 122°
2026-05-04 14:21 33.42693 -97.72747 13111 ft 352 kts 122°
2026-05-04 14:21 33.41443 -97.70250 12534 ft 347 kts 122°
2026-05-04 14:21 33.40209 -97.67793 11998 ft 341 kts 122°
2026-05-04 14:22 33.38996 -97.65374 11463 ft 336 kts 122°
2026-05-04 14:22 33.37718 -97.63065 10935 ft 330 kts 128°
2026-05-04 14:22 33.36364 -97.60877 10432 ft 324 kts 128°
2026-05-04 14:22 33.35058 -97.58756 9969 ft 318 kts 128°
2026-05-04 14:23 33.32470 -97.54541 9179 ft 311 kts 128°
2026-05-04 14:23 33.31192 -97.52464 8794 ft 309 kts 128°
2026-05-04 14:23 33.29922 -97.50404 8415 ft 307 kts 129°
2026-05-04 14:24 33.28658 -97.48352 8020 ft 305 kts 128°
2026-05-04 14:24 33.27623 -97.46144 7646 ft 305 kts 113°
2026-05-04 14:24 33.27096 -97.43697 7284 ft 304 kts 97°
2026-05-04 14:24 33.26957 -97.41192 6948 ft 300 kts 95°
2026-05-04 14:25 33.26835 -97.38710 6550 ft 298 kts 96°
2026-05-04 14:25 33.26582 -97.33804 5793 ft 293 kts 96°
2026-05-04 14:25 33.26455 -97.31419 5435 ft 290 kts 96°
2026-05-04 14:26 33.26328 -97.29030 5175 ft 283 kts 97°
2026-05-04 14:26 33.26207 -97.26731 4987 ft 273 kts 97°
2026-05-04 14:26 33.26089 -97.24512 4986 ft 267 kts 97°
2026-05-04 14:26 33.25697 -97.22370 4905 ft 262 kts 116°
2026-05-04 14:27 33.25005 -97.20348 4804 ft 263 kts 117°
2026-05-04 14:27 33.24314 -97.18334 4677 ft 262 kts 117°
2026-05-04 14:27 33.23625 -97.16319 4581 ft 261 kts 117°
2026-05-04 14:27 33.22943 -97.14324 4471 ft 259 kts 117°
2026-05-04 14:28 33.22264 -97.12336 4364 ft 259 kts 118°
2026-05-04 14:28 33.21583 -97.10343 4258 ft 259 kts 118°
2026-05-04 14:28 33.20893 -97.08367 4148 ft 256 kts 122°
2026-05-04 14:28 33.19858 -97.06711 4042 ft 244 kts 146°
2026-05-04 14:29 33.16917 -97.05334 3827 ft 222 kts 184°
2026-05-04 14:29 33.13771 -97.05353 3582 ft 226 kts 185°
2026-05-04 14:30 33.12248 -97.05356 3496 ft 212 kts 185°
2026-05-04 14:30 33.10817 -97.05362 3415 ft 199 kts 186°
2026-05-04 14:30 33.08205 -97.05377 3258 ft 183 kts 186°
2026-05-04 14:31 33.06933 -97.05386 3178 ft 183 kts 185°
2026-05-04 14:31 33.04392 -97.05398 3024 ft 181 kts 185°
2026-05-04 14:32 33.01904 -97.05410 2649 ft 176 kts 184°
2026-05-04 14:32 33.00691 -97.05417 2450 ft 171 kts 184°
2026-05-04 14:32 32.99531 -97.05422 2209 ft 161 kts 184°
2026-05-04 14:32 32.98455 -97.05427 2001 ft 147 kts 184°
2026-05-04 14:33 32.97495 -97.05431 1820 ft 130 kts 183°
2026-05-04 14:33 32.96614 -97.05436 1652 ft 123 kts 182°
2026-05-04 14:33 32.95763 -97.05441 1470 ft 122 kts 182°
2026-05-04 14:33 32.94912 -97.05450 1323 ft 121 kts 181°
2026-05-04 14:34 32.94065 -97.05447 1175 ft 122 kts 179°
2026-05-04 14:34 32.93219 -97.05459 971 ft 122 kts 183°
2026-05-04 14:34 32.92383 -97.05449 840 ft 119 kts 180°
2026-05-04 14:34 32.91553 -97.05451 693 ft 118 kts 181°
2026-05-04 14:35 32.90756 -97.05462 619 ft 105 kts 182°
2026-05-04 14:35 32.90161 -97.05473 611 ft 64 kts 180°
2026-05-04 14:35 32.89860 -97.05469 617 ft 28 kts 182°
2026-05-04 14:35 32.89703 -97.05448 611 ft 20 kts 171°
2026-05-04 14:36 32.89582 -97.05400 614 ft 14 kts 153°
2026-05-04 14:36 32.89499 -97.05348 610 ft 14 kts 152°
2026-05-04 14:36 32.89413 -97.05287 600 ft 15 kts 130°
2026-05-04 14:36 32.89403 -97.05152 597 ft 17 kts 87°
2026-05-04 14:37 32.89402 -97.05017 599 ft 16 kts 92°
2026-05-04 14:37 32.89400 -97.04898 598 ft 15 kts 91°
2026-05-04 14:37 32.89417 -97.04770 595 ft 16 kts 37°
2026-05-04 14:37 32.89522 -97.04762 597 ft 15 kts
2026-05-04 14:38 32.89622 -97.04764 598 ft 14 kts 358°
2026-05-04 14:38 32.89689 -97.04729 597 ft 10 kts 97°
2026-05-04 14:38 32.89642 -97.04693 598 ft 8 kts 157°
2026-05-04 14:38 32.89589 -97.04672 598 ft 10 kts 163°
2026-05-04 14:39 32.89507 -97.04666 598 ft 14 kts 181°
2026-05-04 14:39 32.89428 -97.04621 598 ft 14 kts 98°
2026-05-04 14:39 32.89426 -97.04494 598 ft 15 kts 89°
2026-05-04 14:40 32.89469 -97.04430 598 ft 7 kts 47°
2026-05-04 14:40 32.89501 -97.04411 598 ft 3 kts 19°
2026-05-04 14:40 32.89509 -97.04408 598 ft 0 kts 19°